Location: ?
(35.2180°N, 139.6392°E)
Time: 09:54:46
(UTC+00:00)

Cosmos 1844 Rocket - Pass Details

Date: 05 August 2024
Orbit: 822 x 845 km, 71.0° (Epoch: 14 September)

Event Time Altitude Azimuth Distance (km) Brightness Sun altitude
Rises 15:44:17 0° 347° (NNW) 3,391 6.6 -36.3°
Reaches altitude 10° 15:46:55 10° 356° (N) 2,457 5.8 -36.2°
Enters shadow 15:51:13 34° 42° (NE) 1,344 4.1 -35.9°
